Regional Weather Roundup
Issued by NWS

Home | Current Version | Previous Version | Text Only | Print | Product List | Glossary Off
Versions: 1 2 3 4 5 6 7 8 9 10 11 12 13 14 15 16 17 18 19 20 21 22 23 24 25 26 27 28 29 30 31 32 33 34 35 36 37 38 39 40 41 42 43 44 45 46 47 48 49 50

913
ASUS45 KSLC 030210
RWRUT

UTAH REGIONAL WEATHER ROUNDUP
NATIONAL WEATHER SERVICE SALT LAKE CITY UT
800 PM MDT MON MAY 02 2016

UTZ001>011-023>025-030300-

NORTHERN UTAH

CITY           SKY/WX    TMP DP  RH WIND       PRES   REMARKS
BRIGHAM CITY   CLEAR     65  24  21 W3        30.16S
HILL AFB       CLEAR     61  30  31 NW7       30.17S
LOGAN          CLEAR     64  28  25 CALM      30.15S
OGDEN          CLEAR     61  30  31 NW7       30.15S
PROVO AIRPORT  PTCLDY    61  37  41 W13       30.15R
SALT LAKE CITY PTCLDY    64  31  28 N9        30.14F
VERNAL         CLEAR     60  27  28 S3        30.15R
WENDOVER       CLEAR     63  34  34 S3        30.16S
HEBER CITY     PTCLDY    55  32  41 NW6       30.15R

$$

UTZ012>022-026-027-030300-

SOUTHERN/CENTRAL UTAH

CITY           SKY/WX    TMP DP  RH WIND       PRES   REMARKS
BLANDING         N/A     54  35  49 NE12      30.25S
BRYCE CANYON   LGT RAIN  39  35  86 W8        30.27F WCI  33
CEDAR CITY     MOCLDY    54  36  50 E13       30.16F
DELTA            N/A     61  32  33 NE7       30.14S
HANKSVILLE       N/A     63  32  31 CALM      30.15R
MILFORD        CLOUDY    62  32  32 E8        30.14R
MOAB/CYNLANDS    N/A     63  35  35 S5        30.11S
PRICE            N/A     56  32  40 E8        30.16F
ST GEORGE      PTCLDY    70  37  30 NE12      30.08S

$$

REGIONAL REPORTS     COLORADO/ARIZONA

CITY           SKY/WX    TMP DP  RH WIND       PRES   REMARKS
CRAIG, CO      CLEAR     53  26  35 W6        30.17S
GRAND JUNCTION CLEAR     59  34  39 W7        30.11S
RIFLE          CLEAR     59  25  27 NW8       30.12R
MONTROSE       CLOUDY    56  30  37 NW8       30.16R
CORTEZ         LGT RAIN  50  39  66 NE12      30.18R
PAGE, AZ         N/A     64  33  31 CALM      30.12S
GRAND CANYON     N/A     50  37  61 CALM      30.20R
KINGMAN        CLOUDY    69  36  29 NE12      30.05S
FLAGSTAFF      CLOUDY    42  40  92 CALM      30.21F

$$

REGIONAL REPORTS    NEVADA/IDAHO/WYOMING

CITY           SKY/WX    TMP DP  RH WIND       PRES   REMARKS
LAS VEGAS, NV    N/A     78  30  17 E7        29.96S
ELY              N/A     54  33  45 SW6       30.18S
ELKO           MOCLDY    64  30  27 E7        30.13S
POCATELLO, ID  CLEAR     61  37  41 NW6       30.16S
BURLEY         CLEAR     63  35  35 E7        30.12S
EVANSTON, WY   CLEAR     55  11  17 N5        30.22S
ROCK SPRINGS   NOT AVBL
KEMMERER         N/A     52  18  25 W7        30.23R

$$




USA.gov is the U.S. government's official web portal to all federal, state and local government web resources and services.